[[{"header":{"parameterUnit":"m.s-1","parameterCategory":1,"la1":30.2991,"la2":30.254,"lo1":-89.0895,"lo2":-89.0444,"dy":0.0017,"dx":0.0017,"nx":28,"ny":28,"refTime":"2024-03-18T09:00:00:Z","depth":0,"parameterNumber":2,"parameterNumberName":"U-component_of_WINDS"},"data":[0,0,0,0,0,0,0,0,0,0,0,0,0,0,0,0,0,0,0,0,0,0,0,0,0,0,0,0,0,0,0,0,0,0,0,0,0,0,0,0,0,0,0,0,0,0,0,0,0,0,0,0,0,0,0,0,0,0,-2.8356,-2.8357,0,-2.8418,-2.8418,-2.8419,-2.8293,-2.8289,-2.8284,-2.8281,-2.8344,-2.8349,-2.8355,0,0,0,0,0,0,0,0,0,0,0,0,0,-2.813,-2.8135,-2.8356,-2.8357,-2.8358,-2.8417,-2.8418,-2.8419,-2.8293,-2.8288,-2.8283,-2.8279,-2.8342,-2.8349,-2.8355,0,0,0,0,0,0,0,0,0,0,0,0,0,-2.8213,-2.8136,-2.8356,-2.8302,-2.8298,-2.8417,-2.8418,-2.8419,-2.8294,-2.8288,-2.8282,-2.8276,-2.834,-2.8348,-2.8356,-2.8531,0,0,-2.8381,-2.8385,0,0,0,0,0,0,0,0,-2.8209,-2.8222,-2.831,-2.8306,-2.8302,-2.8341,-2.8361,-2.8457,-2.8296,-2.8296,-2.828,-2.8273,-2.8348,-2.8355,-2.838,-2.8534,-2.8536,-2.8382,-2.8387,-2.8391,-2.8393,0,0,0,0,0,0,0,-2.8203,-2.8218,-2.838,-2.8311,-2.8306,-2.8275,-2.828,-2.8379,-2.8356,-2.8295,-2.8286,-2.8295,-2.8345,-2.8373,-2.8381,-2.8537,-2.8382,-2.8389,-2.8394,-2.8398,-2.8835,-2.8841,0,0,0,0,0,0,-2.8204,-2.8215,-2.8379,-2.8382,-2.8239,-2.8284,-2.8289,-2.8335,-2.8354,-2.8351,-2.8301,-2.8289,-2.8362,-2.8371,-2.8383,-2.8587,-2.8391,-2.8398,-2.8403,-2.8828,-2.8836,-2.8843,0,0,0,0,0,0,-2.82,-2.822,-2.8376,-2.8296,-2.8313,-2.8294,-2.8346,-2.8339,-2.8367,-2.8358,-2.8353,-2.8333,-2.8357,-2.8371,-2.8494,-2.8588,-2.8402,-2.841,-2.882,-2.8831,-2.884,-2.8999,0,0,0,0,0,0,-2.8194,-2.8219,-2.8286,-2.8298,-2.8318,-2.8488,-2.8352,-2.8345,-2.8381,-2.8367,-2.8388,-2.8385,-2.8353,-2.8483,-2.8503,-2.8596,-2.8416,-2.8812,-2.8825,-2.8837,-2.8985,-2.9013,-2.9037,0,0,0,0,0,-2.8186,-2.8329,-2.829,-2.8311,-2.8401,-2.8494,-2.8505,-2.8465,-2.839,-2.8456,-2.845,-2.8385,-2.8574,-2.8496,-2.8518,-2.8615,-2.8806,-2.8821,-2.8836,-2.8974,-2.9008,-2.9036,0,0,0,0,0,0,-2.8329,-2.833,-2.8287,-2.8438,-2.8466,-2.8472,-2.8555,-2.8502,-2.8553,-2.8538,-2.8486,-2.8492,-2.8625,-2.8632,-2.8545,-2.8784,-2.8677,-2.8697,-2.8775,-2.8807,-2.8832,-2.8828,-2.8423,0,0,0,0,0,-2.8378,-2.8453,-2.8449,-2.8583,-2.8599,-2.8575,-2.8614,-2.858,-2.8608,-2.862,-2.8623,-2.8652,-2.8718,-2.8762,-2.8823,-2.8985,-2.8987,-2.9062,-2.9088,-2.9109,-2.9127,-2.9212,-2.9245,-2.8892,-2.8892,-2.8892,0,0,-2.848,-2.8489,-2.854,-2.8612,-2.863,-2.8708,-2.8586,-2.8675,-2.8732,-2.8633,-2.8749,-2.8753,-2.8782,-2.8925,-2.8989,-2.8935,-2.9225,-2.9128,-2.9145,-2.9152,-2.9231,-2.9264,-2.9294,-2.8903,-2.8901,-2.8899,0,0,-2.8706,-2.8721,-2.8833,-2.8854,-2.8882,-2.8865,-2.8892,-2.8905,-2.8903,-2.9019,-2.8946,-2.9013,-2.9128,-2.9151,-2.9178,-2.9411,-2.9352,-2.9432,-2.9567,-2.965,-2.9678,-2.9702,-2.9784,-2.9815,-2.9449,-2.945,-2.945,0,-2.8829,-2.8945,-2.8898,-2.8991,-2.9024,-2.8937,-2.9049,-2.9071,-2.9119,-2.9144,-2.9083,-2.9223,-2.9237,-2.9384,-2.944,-2.9465,-2.9494,-2.943,-2.9678,-2.9702,-2.9724,-2.9801,-2.9833,-2.9459,-2.9458,-2.9457,-2.9456,0,-2.9095,-2.9175,-2.9262,-2.931,-2.9352,-2.9455,-2.9423,-2.9472,-2.9434,-2.9422,-2.954,-2.9553,-2.9614,-2.9646,-2.961,-2.9788,-2.9753,-2.9686,-2.9578,-2.9767,-2.984,-2.9869,-2.9473,-2.9469,-2.9467,-2.9464,0,0,-2.9414,-2.9432,-2.9465,-2.9484,-2.9509,-2.957,-2.9668,-2.9726,-2.9769,-2.9804,-2.9884,-2.9982,-2.9919,-2.995,-2.9916,-2.9989,-3.0171,-2.9912,-2.9912,-2.996,-3.0366,-3.0416,-3.0452,-3.0132,-3.0137,-3.0141,-3.0363,0,-2.9638,-2.9806,-2.9766,-2.9932,-3.0005,-2.9922,-3.0007,-3.0031,-3.0023,-3.0083,-3.0073,-3.0143,-3.0055,-3.0073,-3.0142,-3.0134,-3.0252,-3.0118,-3.0206,-3.0209,-3.0201,-3.0489,-3.0544,-3.0752,-3.0391,-3.0396,-3.0399,0,-2.9922,-2.9966,-3.014,-3.0151,-3.018,-3.0257,-3.0306,-3.0365,-3.039,-3.0378,-3.0412,-3.0362,-3.0458,-3.0349,-3.0479,-3.0389,-3.0422,-3.0424,-3.0431,-3.0438,-3.0316,-3.0504,-3.0818,-3.0849,-3.0443,-3.044,-3.0437,0,-3.0137,-3.0241,-3.0357,-3.0377,-3.0392,-3.0448,-3.0457,-3.0475,-3.0512,-3.0555,-3.0578,-3.0632,-3.0662,-3.0704,-3.067,-3.0594,-3.0806,-3.0694,-3.0799,-3.08,-3.0848,-3.0846,-3.1172,-3.087,-3.0869,-3.0868,-3.0868,0,-3.0391,-3.0501,-3.0454,-3.0526,-3.0646,-3.0597,-3.0717,-3.0716,-3.0733,-3.0802,-3.0733,-3.08,-3.0751,-3.0814,-3.0788,-3.0899,-3.0913,-3.0906,-3.0898,-3.0913,-3.0914,-3.0934,-3.0919,-3.0877,-3.0875,-3.0873,-3.0872,0,-3.0652,-3.0626,-3.0747,-3.0751,-3.0754,-3.0842,-3.0845,-3.0911,-3.0896,-3.0986,-3.1004,-3.0981,-3.1051,-3.1021,-3.1095,-3.1077,-3.122,-3.1192,-3.1212,-3.1205,-3.1311,-3.1301,-3.1662,-3.1706,-3.1376,-3.1379,-3.1382,0,-3.0816,-3.0898,-3.091,-3.0952,-3.0965,-3.1033,-3.107,-3.1025,-3.1066,-3.1099,-3.1162,-3.1225,-3.1273,-3.1388,-3.1378,-3.1434,-3.1407,-3.1529,-3.1415,-3.1427,-3.1408,-3.1404,-3.1411,-3.1553,-3.1557,-3.156,-3.1562,0,-3.111,-3.1092,-3.1148,-3.12,-3.1245,-3.1284,-3.1316,-3.1354,-3.131,-3.1359,-3.1429,-3.1467,-3.1541,-3.1605,-3.1653,-3.1661,-3.1605,-3.1598,-3.1625,-3.1641,-3.1649,-3.1645,-3.1274,-3.159,-3.1587,-3.1585,-3.1584,-3.1583,-3.1327,-3.1396,-3.1414,-3.1479,-3.1498,-3.1529,-3.1591,-3.1583,-3.1641,-3.1697,-3.1667,-3.1748,-3.1768,-3.1828,-3.1843,-3.1906,-3.1858,-3.1897,-3.1907,-3.1918,-3.1931,-3.1639,-3.1915,-3.1914,-3.1913,-3.1912,-3.1912,0,-3.1617,-3.1624,-3.1684,-3.173,-3.1781,-3.1722,-3.1754,-3.18,-3.1872,-3.1896,-3.1944,-3.2024,-3.2084,-3.2078,-3.2134,-3.2185,-3.216,-3.2201,-3.2197,-3.2199,-3.1972,-3.1942,-3.222,-3.222,-3.222,-3.222,-3.222,-3.222,-3.1774,-3.1886,-3.187,-3.199,-3.1996,-3.2075,-3.2099,-3.2127,-3.2145,-3.2237,-3.2287,-3.2282,-3.2293,-3.2348,-3.2401,-3.2397,-3.2421,-3.2472,-3.2459,-3.2246,-3.2216,-3.2187,-3.2159,-3.2477,-3.2478,-3.2681,-3.2683,-3.2684]},{"header":{"parameterUnit":"m.s-1","parameterCategory":1,"la1":30.2991,"la2":30.254,"lo1":-89.0895,"lo2":-89.0444,"dy":0.0017,"dx":0.0017,"nx":28,"ny":28,"refTime":"2024-03-18T09:00:00:Z","depth":0,"parameterNumber":3,"parameterNumberName":"V-component_of_WINDS"},"data":[0,0,0,0,0,0,0,0,0,0,0,0,0,0,0,0,0,0,0,0,0,0,0,0,0,0,0,0,0,0,0,0,0,0,0,0,0,0,0,0,0,0,0,0,0,0,0,0,0,0,0,0,0,0,0,0,0,0,-5.2511,-5.2512,0,-5.2608,-5.2609,-5.261,-5.2526,-5.2523,-5.252,-5.2516,-5.2611,-5.2617,-5.2623,0,0,0,0,0,0,0,0,0,0,0,0,0,-5.2249,-5.2254,-5.2511,-5.2512,-5.2514,-5.2607,-5.2609,-5.261,-5.2527,-5.2523,-5.2519,-5.2515,-5.2609,-5.2616,-5.2623,0,0,0,0,0,0,0,0,0,0,0,0,0,-5.2356,-5.2256,-5.2511,-5.2483,-5.2482,-5.2607,-5.2609,-5.261,-5.2528,-5.2523,-5.2518,-5.2513,-5.2607,-5.2616,-5.2624,-5.278,0,0,-5.265,-5.2654,0,0,0,0,0,0,0,0,-5.235,-5.2365,-5.2486,-5.2486,-5.2484,-5.255,-5.2551,-5.2667,-5.2529,-5.251,-5.2516,-5.251,-5.2595,-5.2604,-5.2633,-5.2785,-5.2789,-5.2651,-5.2656,-5.266,-5.2662,0,0,0,0,0,0,0,-5.2343,-5.2361,-5.2549,-5.2488,-5.2487,-5.2464,-5.2474,-5.2573,-5.258,-5.2512,-5.2506,-5.2519,-5.2593,-5.2625,-5.2635,-5.279,-5.2651,-5.2658,-5.2664,-5.2667,-5.307,-5.3075,0,0,0,0,0,0,-5.2339,-5.2355,-5.2546,-5.2552,-5.2403,-5.2473,-5.2484,-5.2534,-5.2579,-5.2581,-5.2523,-5.2514,-5.2613,-5.2625,-5.2638,-5.2821,-5.266,-5.2668,-5.2673,-5.3065,-5.3071,-5.3077,0,0,0,0,0,0,-5.2333,-5.2357,-5.2542,-5.2452,-5.2474,-5.2483,-5.254,-5.2539,-5.2571,-5.2587,-5.2588,-5.2555,-5.261,-5.2626,-5.2745,-5.2824,-5.2672,-5.268,-5.3058,-5.3067,-5.3074,-5.3191,0,0,0,0,0,0,-5.2326,-5.2355,-5.2416,-5.2454,-5.2479,-5.265,-5.2545,-5.2544,-5.2586,-5.2576,-5.2617,-5.2619,-5.2607,-5.2732,-5.2753,-5.2833,-5.2686,-5.3051,-5.3062,-5.3072,-5.318,-5.3202,-5.3221,0,0,0,0,0,-5.2317,-5.2445,-5.242,-5.2443,-5.2556,-5.2654,-5.2668,-5.2653,-5.2593,-5.2653,-5.2663,-5.2618,-5.2812,-5.2745,-5.2768,-5.2851,-5.3046,-5.3059,-5.3071,-5.3171,-5.3198,-5.3221,0,0,0,0,0,0,-5.2415,-5.245,-5.2422,-5.2566,-5.2608,-5.264,-5.2716,-5.2682,-5.2741,-5.2729,-5.2705,-5.2715,-5.284,-5.2857,-5.2783,-5.3003,-5.2919,-5.2937,-5.2987,-5.3013,-5.3033,-5.3026,-5.2693,0,0,0,0,0,-5.2454,-5.2533,-5.2558,-5.2683,-5.2705,-5.2707,-5.2749,-5.2733,-5.2775,-5.2792,-5.2811,-5.2852,-5.2922,-5.2968,-5.3034,-5.3182,-5.3188,-5.325,-5.3271,-5.3288,-5.3303,-5.338,-5.3407,-5.3118,-5.3118,-5.3118,0,0,-5.2534,-5.2563,-5.2614,-5.2703,-5.2734,-5.2813,-5.2723,-5.2812,-5.287,-5.2805,-5.2918,-5.2934,-5.2978,-5.3112,-5.3171,-5.313,-5.3384,-5.3303,-5.3317,-5.3323,-5.3395,-5.3422,-5.3447,-5.3127,-5.3125,-5.3124,0,0,-5.2721,-5.2752,-5.2858,-5.289,-5.2938,-5.2938,-5.2963,-5.3,-5.3008,-5.3121,-5.3074,-5.3141,-5.3263,-5.3295,-5.3328,-5.3524,-5.3484,-5.3546,-5.3653,-5.3728,-5.3751,-5.3771,-5.3839,-5.3864,-5.3561,-5.3562,-5.3562,0,-5.2815,-5.2935,-5.2916,-5.3009,-5.3048,-5.2993,-5.3099,-5.3131,-5.3197,-5.3224,-5.3177,-5.3326,-5.3352,-5.3491,-5.3539,-5.3568,-5.3594,-5.3541,-5.375,-5.3769,-5.3788,-5.3852,-5.3878,-5.3569,-5.3568,-5.3567,-5.3567,0,-5.3046,-5.313,-5.321,-5.3275,-5.3323,-5.3422,-5.3416,-5.3467,-5.3446,-5.345,-5.3564,-5.3594,-5.3662,-5.3694,-5.3675,-5.383,-5.3803,-5.3753,-5.3668,-5.3823,-5.3883,-5.3907,-5.3579,-5.3576,-5.3574,-5.3573,0,0,-5.3299,-5.3352,-5.3381,-5.3409,-5.3456,-5.3519,-5.3614,-5.3682,-5.3725,-5.3771,-5.3848,-5.3951,-5.3905,-5.3942,-5.3925,-5.3991,-5.4142,-5.3933,-5.3934,-5.3969,-5.4312,-5.4348,-5.4377,-5.4116,-5.412,-5.4124,-5.4307,0,-5.3486,-5.3652,-5.3637,-5.3794,-5.3869,-5.3817,-5.3899,-5.3935,-5.3941,-5.4004,-5.401,-5.4083,-5.4017,-5.4039,-5.4102,-5.411,-5.421,-5.4097,-5.4185,-5.4188,-5.4174,-5.4409,-5.4448,-5.462,-5.4331,-5.4335,-5.4338,0,-5.3727,-5.3783,-5.3947,-5.398,-5.4011,-5.4085,-5.4145,-5.4207,-5.4246,-5.4245,-5.4286,-5.4257,-5.4349,-5.4263,-5.4388,-5.4312,-5.4346,-5.4355,-5.4362,-5.4368,-5.4272,-5.442,-5.4674,-5.47,-5.4375,-5.4372,-5.4369,0,-5.3893,-5.4008,-5.412,-5.4146,-5.4188,-5.4241,-5.4261,-5.4295,-5.4336,-5.4387,-5.4413,-5.4475,-5.4508,-5.4555,-5.4543,-5.4482,-5.467,-5.4584,-5.467,-5.4671,-5.4712,-5.471,-5.4974,-5.4737,-5.4737,-5.4736,-5.4736,0,-5.4103,-5.4205,-5.4195,-5.4264,-5.4376,-5.4356,-5.4466,-5.4479,-5.451,-5.4578,-5.4537,-5.4602,-5.4582,-5.4646,-5.4636,-5.474,-5.4756,-5.4756,-5.4752,-5.476,-5.4759,-5.4781,-5.4768,-5.4743,-5.4742,-5.474,-5.4739,0,-5.4306,-5.4304,-5.4423,-5.4453,-5.4462,-5.4543,-5.4567,-5.4631,-5.4633,-5.472,-5.474,-5.4742,-5.4815,-5.4807,-5.4888,-5.4881,-5.501,-5.4992,-5.4997,-5.4993,-5.5079,-5.5071,-5.5366,-5.5403,-5.5144,-5.5146,-5.5148,0,-5.444,-5.4517,-5.4555,-5.4598,-5.4622,-5.4693,-5.4734,-5.4716,-5.4761,-5.481,-5.4867,-5.4936,-5.499,-5.5107,-5.5115,-5.5176,-5.5159,-5.5258,-5.5167,-5.5171,-5.5158,-5.5153,-5.5159,-5.5275,-5.5278,-5.5281,-5.5283,0,-5.4677,-5.4671,-5.4733,-5.4795,-5.4845,-5.4893,-5.4935,-5.4973,-5.4959,-5.5011,-5.5084,-5.5126,-5.5208,-5.5276,-5.5333,-5.5351,-5.5314,-5.5311,-5.5334,-5.5342,-5.5341,-5.534,-5.5044,-5.5304,-5.5302,-5.5301,-5.5299,-5.5299,-5.4848,-5.4913,-5.4949,-5.5019,-5.5049,-5.5089,-5.515,-5.5159,-5.5221,-5.5287,-5.5272,-5.5355,-5.5389,-5.5462,-5.5486,-5.5548,-5.5512,-5.5546,-5.5554,-5.5562,-5.5572,-5.5332,-5.5559,-5.5558,-5.5558,-5.5557,-5.5557,0,-5.5081,-5.5101,-5.5165,-5.5226,-5.528,-5.5242,-5.5286,-5.5334,-5.5407,-5.5443,-5.5496,-5.558,-5.5644,-5.5657,-5.5718,-5.5766,-5.575,-5.5783,-5.5778,-5.5782,-5.5602,-5.5575,-5.5794,-5.5794,-5.5794,-5.5794,-5.5794,-5.5794,-5.5208,-5.5316,-5.5314,-5.5435,-5.5454,-5.5535,-5.5563,-5.5599,-5.5627,-5.5722,-5.5776,-5.5784,-5.581,-5.5872,-5.5929,-5.5931,-5.5955,-5.5993,-5.5988,-5.5819,-5.5795,-5.5773,-5.5747,-5.5999,-5.5999,-5.6163,-5.6165,-5.6166]}]]